Year,Month,Day,Hour,Minute,Value (Times are PST for barometer in hPa)
2015,08,29,00,00,1005.40
2015,08,29,00,01,1005.40
2015,08,29,00,03,1005.40
2015,08,29,00,04,1005.40
2015,08,29,00,06,1005.40
2015,08,29,00,08,1005.40
2015,08,29,00,09,1005.40
2015,08,29,00,10,1005.40
2015,08,29,00,11,1005.40
2015,08,29,00,12,1005.40
2015,08,29,00,13,1005.00
2015,08,29,00,15,1005.00
2015,08,29,00,16,1005.00
2015,08,29,00,17,1005.00
2015,08,29,00,18,1005.00
2015,08,29,00,19,1005.00
2015,08,29,00,20,1005.00
2015,08,29,00,21,1005.00
2015,08,29,00,22,1005.00
2015,08,29,00,23,1005.00
2015,08,29,00,26,1005.00
2015,08,29,00,27,1005.00
2015,08,29,00,29,1004.50
2015,08,29,00,30,1004.50
2015,08,29,00,31,1004.50
2015,08,29,00,32,1004.50
2015,08,29,00,33,1004.50
2015,08,29,00,34,1004.50
2015,08,29,00,35,1004.50
2015,08,29,00,36,1004.50
2015,08,29,00,37,1004.50
2015,08,29,00,38,1004.50
2015,08,29,00,39,1004.50
2015,08,29,00,40,1004.50
2015,08,29,00,41,1004.50
2015,08,29,00,42,1004.50
2015,08,29,00,43,1004.20
2015,08,29,00,44,1004.20
2015,08,29,00,45,1004.20
2015,08,29,00,46,1004.20
2015,08,29,00,47,1004.20
2015,08,29,00,48,1004.20
2015,08,29,00,49,1004.20
2015,08,29,00,50,1004.20
2015,08,29,00,51,1004.20
2015,08,29,00,52,1004.20
2015,08,29,00,53,1004.20
2015,08,29,00,54,1004.20
2015,08,29,00,55,1004.20
2015,08,29,00,56,1004.20
2015,08,29,00,57,1004.20
2015,08,29,00,58,1004.00
2015,08,29,00,59,1004.00
2015,08,29,01,00,1004.00
2015,08,29,01,01,1004.00
2015,08,29,01,03,1004.00
2015,08,29,01,04,1004.00
2015,08,29,01,05,1004.00
2015,08,29,01,06,1004.00
2015,08,29,01,07,1004.00
2015,08,29,01,08,1004.00
2015,08,29,01,09,1004.00
2015,08,29,01,10,1004.00
2015,08,29,01,11,1004.00
2015,08,29,01,12,1004.00
2015,08,29,01,13,1003.50
2015,08,29,01,14,1003.50
2015,08,29,01,15,1003.50
2015,08,29,01,16,1003.50
2015,08,29,01,17,1003.50
2015,08,29,01,18,1003.50
2015,08,29,01,20,1003.50
2015,08,29,01,21,1003.50
2015,08,29,01,22,1003.50
2015,08,29,01,23,1003.50
2015,08,29,01,24,1003.50
2015,08,29,01,25,1003.50
2015,08,29,01,26,1003.50
2015,08,29,01,27,1003.50
2015,08,29,01,28,1003.10
2015,08,29,01,29,1003.10
2015,08,29,01,30,1003.10
2015,08,29,01,31,1003.10
2015,08,29,01,32,1003.10
2015,08,29,01,33,1003.10
2015,08,29,01,34,1003.10
2015,08,29,01,35,1003.10
2015,08,29,01,36,1003.10
2015,08,29,01,37,1003.10
2015,08,29,01,38,1003.10
2015,08,29,01,39,1003.10
2015,08,29,01,40,1003.10
2015,08,29,01,41,1003.10
2015,08,29,01,42,1003.10
2015,08,29,01,43,1002.90
2015,08,29,01,44,1002.90
2015,08,29,01,45,1002.90
2015,08,29,01,46,1002.90
2015,08,29,01,47,1002.90
2015,08,29,01,50,1002.90
2015,08,29,01,51,1002.90
2015,08,29,01,52,1002.90
2015,08,29,01,53,1002.90
2015,08,29,01,54,1002.90
2015,08,29,01,55,1002.90
2015,08,29,01,56,1002.90
2015,08,29,01,57,1002.90
2015,08,29,01,58,1002.90
2015,08,29,02,00,1002.50
2015,08,29,02,01,1002.50
2015,08,29,02,02,1002.50
2015,08,29,02,03,1002.50
2015,08,29,02,05,1002.50
2015,08,29,02,06,1002.50
2015,08,29,02,07,1002.50
2015,08,29,02,10,1002.50
2015,08,29,02,11,1002.50
2015,08,29,02,12,1002.50
2015,08,29,02,13,1002.50
2015,08,29,02,14,1002.20
2015,08,29,02,15,1002.20
2015,08,29,02,16,1002.20
2015,08,29,02,17,1002.20
2015,08,29,02,18,1002.20
2015,08,29,02,19,1002.20
2015,08,29,02,20,1002.20
2015,08,29,02,22,1002.20
2015,08,29,02,23,1002.20
2015,08,29,02,24,1002.20
2015,08,29,02,25,1002.20
2015,08,29,02,26,1002.20
2015,08,29,02,28,1002.20
2015,08,29,02,29,1001.80
2015,08,29,02,30,1001.80
2015,08,29,02,31,1001.80
2015,08,29,02,32,1001.80
2015,08,29,02,33,1001.80
2015,08,29,02,34,1001.80
2015,08,29,02,36,1001.80
2015,08,29,02,37,1001.80
2015,08,29,02,38,1001.80
2015,08,29,02,39,1001.80
2015,08,29,02,40,1001.80
2015,08,29,02,41,1001.80
2015,08,29,02,42,1001.80
2015,08,29,02,43,1001.80
2015,08,29,02,44,1001.40
2015,08,29,02,45,1001.40
2015,08,29,02,47,1001.40
2015,08,29,02,48,1001.40
2015,08,29,02,49,1001.40
2015,08,29,02,50,1001.40
2015,08,29,02,51,1001.40
2015,08,29,02,52,1001.40
2015,08,29,02,53,1001.40
2015,08,29,02,54,1001.40
2015,08,29,02,55,1001.40
2015,08,29,02,56,1001.40
2015,08,29,02,57,1001.40
2015,08,29,02,58,1001.40
2015,08,29,03,00,1001.20
2015,08,29,03,01,1001.20
2015,08,29,03,02,1001.20
2015,08,29,03,04,1001.20
2015,08,29,03,05,1001.20
2015,08,29,03,06,1001.20
2015,08,29,03,07,1001.20
2015,08,29,03,08,1001.20
2015,08,29,03,09,1001.20
2015,08,29,03,10,1001.20
2015,08,29,03,11,1001.20
2015,08,29,03,12,1001.20
2015,08,29,03,13,1001.20
2015,08,29,03,14,1000.90
2015,08,29,03,15,1000.90
2015,08,29,03,17,1000.90
2015,08,29,03,18,1000.90
2015,08,29,03,19,1000.90
2015,08,29,03,20,1000.90
2015,08,29,03,21,1000.90
2015,08,29,03,22,1000.90
2015,08,29,03,23,1000.90
2015,08,29,03,24,1000.90
2015,08,29,03,25,1000.90
2015,08,29,03,26,1000.90
2015,08,29,03,27,1000.90
2015,08,29,03,28,1000.90
2015,08,29,03,29,1000.50
2015,08,29,03,30,1000.50
2015,08,29,03,31,1000.50
2015,08,29,03,32,1000.50
2015,08,29,03,33,1000.50
2015,08,29,03,34,1000.50
2015,08,29,03,35,1000.50
2015,08,29,03,36,1000.50
2015,08,29,03,38,1000.50
2015,08,29,03,39,1000.50
2015,08,29,03,40,1000.50
2015,08,29,03,42,1000.50
2015,08,29,03,43,1000.50
2015,08,29,03,44,1000.30
2015,08,29,03,45,1000.30
2015,08,29,03,46,1000.30
2015,08,29,03,47,1000.30
2015,08,29,03,48,1000.30
2015,08,29,03,49,1000.30
2015,08,29,03,50,1000.30
2015,08,29,03,51,1000.30
2015,08,29,03,52,1000.30
2015,08,29,03,53,1000.30
2015,08,29,03,55,1000.30
2015,08,29,03,56,1000.30
2015,08,29,03,57,1000.30
2015,08,29,03,58,1000.30
2015,08,29,03,59,999.90
2015,08,29,04,01,999.90
2015,08,29,04,02,999.90
2015,08,29,04,03,999.90
2015,08,29,04,04,999.90
2015,08,29,04,05,999.90
2015,08,29,04,06,999.90
2015,08,29,04,07,999.90
2015,08,29,04,08,999.90
2015,08,29,04,09,999.90
2015,08,29,04,10,999.90
2015,08,29,04,11,999.90
2015,08,29,04,12,999.90
2015,08,29,04,13,999.90
2015,08,29,04,14,999.60
2015,08,29,04,15,999.60
2015,08,29,04,18,999.60
2015,08,29,04,19,999.60
2015,08,29,04,20,999.60
2015,08,29,04,21,999.60
2015,08,29,04,22,999.60
2015,08,29,04,23,999.60
2015,08,29,04,24,999.60
2015,08,29,04,25,999.60
2015,08,29,04,26,999.60
2015,08,29,04,27,999.60
2015,08,29,04,28,999.60
2015,08,29,04,29,998.80
2015,08,29,04,30,998.80
2015,08,29,04,31,998.80
2015,08,29,04,32,998.80
2015,08,29,04,33,998.80
2015,08,29,04,34,998.80
2015,08,29,04,35,998.80
2015,08,29,04,36,998.80
2015,08,29,04,37,998.80
2015,08,29,04,38,998.80
2015,08,29,04,39,998.80
2015,08,29,04,40,998.80
2015,08,29,04,41,998.80
2015,08,29,04,42,998.80
2015,08,29,04,43,998.80
2015,08,29,04,44,999.00
2015,08,29,04,45,999.00
2015,08,29,04,46,999.00
2015,08,29,04,47,999.00
2015,08,29,04,48,999.00
2015,08,29,04,49,999.00
2015,08,29,04,50,999.00
2015,08,29,04,51,999.00
2015,08,29,04,52,999.00
2015,08,29,04,53,999.00
2015,08,29,04,55,999.00
2015,08,29,04,56,999.00
2015,08,29,04,57,999.00
2015,08,29,04,58,999.00
2015,08,29,04,59,998.80
2015,08,29,05,00,998.80
2015,08,29,05,02,998.80
2015,08,29,05,04,998.80
2015,08,29,05,05,998.80
2015,08,29,05,06,998.80
2015,08,29,05,08,998.80
2015,08,29,05,09,998.80
2015,08,29,05,10,998.80
2015,08,29,05,11,998.80
2015,08,29,05,12,998.80
2015,08,29,05,13,998.80
2015,08,29,05,14,998.40
2015,08,29,05,15,998.40
2015,08,29,05,16,998.40
2015,08,29,05,17,998.40
2015,08,29,05,18,998.40
2015,08,29,05,19,998.40
2015,08,29,05,21,998.40
2015,08,29,05,23,998.40
2015,08,29,05,24,998.40
2015,08,29,05,25,998.40
2015,08,29,05,28,998.40
2015,08,29,05,29,997.90
2015,08,29,05,30,997.90
2015,08,29,05,31,997.90
2015,08,29,05,32,997.90
2015,08,29,05,33,997.90
2015,08,29,05,34,997.90
2015,08,29,05,35,997.90
2015,08,29,05,36,997.90
2015,08,29,05,37,997.90
2015,08,29,05,38,997.90
2015,08,29,05,39,997.90
2015,08,29,05,40,997.90
2015,08,29,05,42,997.90
2015,08,29,05,43,997.90
2015,08,29,05,44,997.80
2015,08,29,05,45,997.80
2015,08,29,05,46,997.80
2015,08,29,05,48,997.80
2015,08,29,05,49,997.80
2015,08,29,05,50,997.80
2015,08,29,05,51,997.80
2015,08,29,05,52,997.80
2015,08,29,05,53,997.80
2015,08,29,05,54,997.80
2015,08,29,05,55,997.80
2015,08,29,05,56,997.80
2015,08,29,05,57,997.80
2015,08,29,05,58,997.80
2015,08,29,05,59,997.30
2015,08,29,06,00,997.30
2015,08,29,06,01,997.30
2015,08,29,06,02,997.30
2015,08,29,06,03,997.30
2015,08,29,06,04,997.30
2015,08,29,06,05,997.30
2015,08,29,06,06,997.30
2015,08,29,06,07,997.30
2015,08,29,06,08,997.30
2015,08,29,06,10,997.30
2015,08,29,06,11,997.30
2015,08,29,06,12,997.30
2015,08,29,06,13,997.30
2015,08,29,06,14,996.70
2015,08,29,06,15,996.70
2015,08,29,06,16,996.70
2015,08,29,06,17,996.70
2015,08,29,06,19,996.70
2015,08,29,06,20,996.70
2015,08,29,06,21,996.70
2015,08,29,06,22,996.70
2015,08,29,06,23,996.70
2015,08,29,06,24,996.70
2015,08,29,06,25,996.70
2015,08,29,06,26,996.70
2015,08,29,06,27,996.70
2015,08,29,06,28,996.70
2015,08,29,06,29,996.10
2015,08,29,06,30,996.10
2015,08,29,06,31,996.10
2015,08,29,06,32,996.10
2015,08,29,06,33,996.10
2015,08,29,06,34,996.10
2015,08,29,06,35,996.10
2015,08,29,06,36,996.10
2015,08,29,06,37,996.10
2015,08,29,06,38,996.10
2015,08,29,06,39,996.10
2015,08,29,06,40,996.10
2015,08,29,06,41,996.10
2015,08,29,06,42,996.10
2015,08,29,06,43,996.10
2015,08,29,06,44,995.60
2015,08,29,06,45,995.60
2015,08,29,06,46,995.60
2015,08,29,06,47,995.60
2015,08,29,06,48,995.60
2015,08,29,06,49,995.60
2015,08,29,06,50,995.60
2015,08,29,06,52,995.60
2015,08,29,06,53,995.60
2015,08,29,06,54,995.60
2015,08,29,06,55,995.60
2015,08,29,06,56,995.60
2015,08,29,06,57,995.60
2015,08,29,06,58,995.60
2015,08,29,06,59,995.20
2015,08,29,07,00,995.20
2015,08,29,07,01,995.20
2015,08,29,07,02,995.20
2015,08,29,07,03,995.20
2015,08,29,07,04,995.20
2015,08,29,07,05,995.20
2015,08,29,07,06,995.20
2015,08,29,07,07,995.20
2015,08,29,07,09,995.20
2015,08,29,07,10,995.20
2015,08,29,07,11,995.20
2015,08,29,07,12,995.20
2015,08,29,07,13,995.20
2015,08,29,07,14,994.80
2015,08,29,07,15,994.80
2015,08,29,07,16,994.80
2015,08,29,07,17,994.80
2015,08,29,07,18,994.80
2015,08,29,07,19,994.80
2015,08,29,07,20,994.80
2015,08,29,07,21,994.80
2015,08,29,07,22,994.80
2015,08,29,07,23,994.80
2015,08,29,07,24,994.80
2015,08,29,07,25,994.80
2015,08,29,07,26,994.80
2015,08,29,07,28,994.80
2015,08,29,07,29,994.70
2015,08,29,07,30,994.70
2015,08,29,07,31,994.70
2015,08,29,07,32,994.70
2015,08,29,07,33,994.70
2015,08,29,07,34,994.70
2015,08,29,07,35,994.70
2015,08,29,07,36,994.70
2015,08,29,07,37,994.70
2015,08,29,07,38,994.70
2015,08,29,07,39,994.70
2015,08,29,07,40,994.70
2015,08,29,07,41,994.70
2015,08,29,07,42,994.70
2015,08,29,07,43,994.70
2015,08,29,07,44,994.70
2015,08,29,07,45,994.70
2015,08,29,07,47,994.70
2015,08,29,07,48,994.70
2015,08,29,07,49,994.70
2015,08,29,07,50,994.70
2015,08,29,07,51,994.70
2015,08,29,07,52,994.70
2015,08,29,07,53,994.70
2015,08,29,07,54,994.70
2015,08,29,07,55,994.70
2015,08,29,07,57,994.70
2015,08,29,07,58,994.70
2015,08,29,07,59,994.70
2015,08,29,08,00,994.70
2015,08,29,08,01,994.70
2015,08,29,08,02,994.70
2015,08,29,08,03,994.70
2015,08,29,08,05,994.70
2015,08,29,08,06,994.70
2015,08,29,08,07,994.70
2015,08,29,08,08,994.70
2015,08,29,08,09,994.70
2015,08,29,08,10,994.70
2015,08,29,08,11,994.70
2015,08,29,08,12,994.70
2015,08,29,08,13,994.70
2015,08,29,08,14,994.60
2015,08,29,08,15,994.60
2015,08,29,08,17,994.60
2015,08,29,08,18,994.60
2015,08,29,08,19,994.60
2015,08,29,08,20,994.60
2015,08,29,08,21,994.60
2015,08,29,08,22,994.60
2015,08,29,08,23,994.60
2015,08,29,08,24,994.60
2015,08,29,08,25,994.60
2015,08,29,08,26,994.60
2015,08,29,08,27,994.60
2015,08,29,08,28,994.60
2015,08,29,08,29,994.70
2015,08,29,08,30,994.70
2015,08,29,08,31,994.70
2015,08,29,08,32,994.70
2015,08,29,08,33,994.70
2015,08,29,08,34,994.70
2015,08,29,08,35,994.70
2015,08,29,08,36,994.70
2015,08,29,08,37,994.70
2015,08,29,08,38,994.70
2015,08,29,08,42,994.70
2015,08,29,08,43,994.70
2015,08,29,08,44,994.70
2015,08,29,08,45,994.70
2015,08,29,08,46,994.70
2015,08,29,08,48,994.70
2015,08,29,08,49,994.70
2015,08,29,08,50,994.70
2015,08,29,08,51,994.70
2015,08,29,08,52,994.70
2015,08,29,08,53,994.70
2015,08,29,08,54,994.70
2015,08,29,08,55,994.70
2015,08,29,08,56,994.70
2015,08,29,08,57,994.70
2015,08,29,08,58,994.70
2015,08,29,08,59,995.10
2015,08,29,09,00,995.10
2015,08,29,09,01,995.10
2015,08,29,09,02,995.10
2015,08,29,09,03,995.10
2015,08,29,09,04,995.10
2015,08,29,09,05,995.10
2015,08,29,09,07,995.10
2015,08,29,09,08,995.10
2015,08,29,09,09,995.10
2015,08,29,09,10,995.10
2015,08,29,09,11,995.10
2015,08,29,09,12,995.10
2015,08,29,09,13,995.10
2015,08,29,09,14,995.20
2015,08,29,09,15,995.20
2015,08,29,09,16,995.20
2015,08,29,09,17,995.20
2015,08,29,09,18,995.20
2015,08,29,09,19,995.20
2015,08,29,09,20,995.20
2015,08,29,09,21,995.20
2015,08,29,09,22,995.20
2015,08,29,09,23,995.20
2015,08,29,09,24,995.20
2015,08,29,09,25,995.20
2015,08,29,09,26,995.20
2015,08,29,09,27,995.20
2015,08,29,09,28,995.20
2015,08,29,09,29,995.20
2015,08,29,09,30,995.20
2015,08,29,09,31,995.20
2015,08,29,09,32,995.20
2015,08,29,09,33,995.20
2015,08,29,09,34,995.20
2015,08,29,09,36,995.20
2015,08,29,09,37,995.20
2015,08,29,09,39,995.20
2015,08,29,09,40,995.20
2015,08,29,09,41,995.20
2015,08,29,09,42,995.20
2015,08,29,09,43,995.20
2015,08,29,09,44,995.20
2015,08,29,09,45,995.20
2015,08,29,09,46,995.20
2015,08,29,09,47,995.20
2015,08,29,09,48,995.20
2015,08,29,09,49,995.20
2015,08,29,09,50,995.20
2015,08,29,09,51,995.20
2015,08,29,09,52,995.20
2015,08,29,09,53,995.20
2015,08,29,09,54,995.20
2015,08,29,09,57,995.20
2015,08,29,09,58,995.20
2015,08,29,09,59,995.10
2015,08,29,10,00,995.10
2015,08,29,10,01,995.10
2015,08,29,10,02,995.10
2015,08,29,10,03,995.10
2015,08,29,10,04,995.10
2015,08,29,10,05,995.10
2015,08,29,10,06,995.10
2015,08,29,10,07,995.10
2015,08,29,10,08,995.10
2015,08,29,10,10,995.10
2015,08,29,10,11,995.10
2015,08,29,10,12,995.10
2015,08,29,10,13,995.10
2015,08,29,10,14,994.70
2015,08,29,10,16,994.70
2015,08,29,10,17,994.70
2015,08,29,10,18,994.70
2015,08,29,10,19,994.70
2015,08,29,10,21,994.70
2015,08,29,10,22,994.70
2015,08,29,10,23,994.70
2015,08,29,10,24,994.70
2015,08,29,10,25,994.70
2015,08,29,10,26,994.70
2015,08,29,10,27,994.70
2015,08,29,10,28,994.70
2015,08,29,10,29,994.50
2015,08,29,10,30,994.50
2015,08,29,10,31,994.50
2015,08,29,10,32,994.50
2015,08,29,10,33,994.50
2015,08,29,10,34,994.50
2015,08,29,10,35,994.50
2015,08,29,10,37,994.50
2015,08,29,10,38,994.50
2015,08,29,10,39,994.50
2015,08,29,10,40,994.50
2015,08,29,10,41,994.50
2015,08,29,10,43,994.50
2015,08,29,10,44,994.40
2015,08,29,10,47,994.40
2015,08,29,10,48,994.40
2015,08,29,10,49,994.40
2015,08,29,10,50,994.40
2015,08,29,10,51,994.40
2015,08,29,10,52,994.40
2015,08,29,10,53,994.40
2015,08,29,10,55,994.40
2015,08,29,10,56,994.40
2015,08,29,10,57,994.40
2015,08,29,10,58,994.40
2015,08,29,10,59,994.00
2015,08,29,11,00,994.00
2015,08,29,11,01,994.00
2015,08,29,11,02,994.00
2015,08,29,11,03,994.00
2015,08,29,11,04,994.00
2015,08,29,11,05,994.00
2015,08,29,11,06,994.00
2015,08,29,11,07,994.00
2015,08,29,11,08,994.00
2015,08,29,11,09,994.00
2015,08,29,11,10,994.00
2015,08,29,11,11,994.00
2015,08,29,11,12,994.00
2015,08,29,11,13,994.00
2015,08,29,11,16,993.50
2015,08,29,11,17,993.50
2015,08,29,11,18,993.50
2015,08,29,11,19,993.50
2015,08,29,11,20,993.50
2015,08,29,11,21,993.50
2015,08,29,11,22,993.50
2015,08,29,11,24,993.50
2015,08,29,11,26,993.50
2015,08,29,11,27,993.50
2015,08,29,11,28,993.50
2015,08,29,11,29,992.80
2015,08,29,11,32,992.80
2015,08,29,11,33,992.80
2015,08,29,11,34,992.80
2015,08,29,11,35,992.80
2015,08,29,11,36,992.80
2015,08,29,11,37,992.80
2015,08,29,11,38,992.80
2015,08,29,11,39,992.80
2015,08,29,11,40,992.80
2015,08,29,11,41,992.80
2015,08,29,11,42,992.80
2015,08,29,11,43,992.80
2015,08,29,11,44,992.50
2015,08,29,11,45,992.50
2015,08,29,11,46,992.50
2015,08,29,11,47,992.50
2015,08,29,11,48,992.50
2015,08,29,11,49,992.50
2015,08,29,11,50,992.50
2015,08,29,11,51,992.50
2015,08,29,11,52,992.50
2015,08,29,11,53,992.50
2015,08,29,11,54,992.50
2015,08,29,11,55,992.50
2015,08,29,11,56,992.50
2015,08,29,11,57,992.50
2015,08,29,11,59,992.50
2015,08,29,12,00,992.50
2015,08,29,12,01,992.50
2015,08,29,12,02,992.50
2015,08,29,12,03,992.50
2015,08,29,12,04,992.50
2015,08,29,12,05,992.50
2015,08,29,12,06,992.50
2015,08,29,12,07,992.50
2015,08,29,12,08,992.50
2015,08,29,12,09,992.50
2015,08,29,12,10,992.50
2015,08,29,12,11,992.50
2015,08,29,12,12,992.50
2015,08,29,12,13,992.50
2015,08,29,12,14,992.50
2015,08,29,12,15,992.50
2015,08,29,12,16,992.50
2015,08,29,12,17,992.50
2015,08,29,12,18,992.50
2015,08,29,12,19,992.50
2015,08,29,12,20,992.50
2015,08,29,12,21,992.50
2015,08,29,12,22,992.50
2015,08,29,12,23,992.50
2015,08,29,12,24,992.50
2015,08,29,12,25,992.50
2015,08,29,12,26,992.50
2015,08,29,12,27,992.50
2015,08,29,12,28,992.50
2015,08,29,12,29,992.80
2015,08,29,12,30,992.80
2015,08,29,12,31,992.80
2015,08,29,12,32,992.80
2015,08,29,12,33,992.80
2015,08,29,12,34,992.80
2015,08,29,12,35,992.80
2015,08,29,12,36,992.80
2015,08,29,12,37,992.80
2015,08,29,12,38,992.80
2015,08,29,12,39,992.80
2015,08,29,12,40,992.80
2015,08,29,12,41,992.80
2015,08,29,12,42,992.80
2015,08,29,12,43,992.80
2015,08,29,12,44,993.40
2015,08,29,12,45,993.40
2015,08,29,12,46,993.40
2015,08,29,12,47,993.40
2015,08,29,12,48,993.40
2015,08,29,12,49,993.40
2015,08,29,12,50,993.40
2015,08,29,12,51,993.40
2015,08,29,12,52,993.40
2015,08,29,12,53,993.40
2015,08,29,12,54,993.40
2015,08,29,12,55,993.40
2015,08,29,12,56,993.40
2015,08,29,12,57,993.40
2015,08,29,12,58,993.40
2015,08,29,12,59,994.10
2015,08,29,13,00,994.10
2015,08,29,13,01,994.10
2015,08,29,13,02,994.10
2015,08,29,13,03,994.10
2015,08,29,13,04,994.10
2015,08,29,13,05,994.10
2015,08,29,13,06,994.10
2015,08,29,13,07,994.10
2015,08,29,13,08,994.10
2015,08,29,13,09,994.10
2015,08,29,13,10,994.10
2015,08,29,13,11,994.10
2015,08,29,13,12,994.10
2015,08,29,13,14,994.60
2015,08,29,13,15,994.60
2015,08,29,13,16,994.60
2015,08,29,15,13,999.50
2015,08,29,15,14,999.50
2015,08,29,15,15,999.50
2015,08,29,15,16,999.50
2015,08,29,15,17,999.50
2015,08,29,15,19,999.50
2015,08,29,15,20,999.50
2015,08,29,15,21,999.50
2015,08,29,15,22,999.50
2015,08,29,15,23,999.50
2015,08,29,15,24,999.50
2015,08,29,15,25,999.50
2015,08,29,15,26,999.50
2015,08,29,15,27,999.50
2015,08,29,15,28,999.50
2015,08,29,15,29,999.80
2015,08,29,15,30,999.80
2015,08,29,15,31,999.80
2015,08,29,15,32,999.80
2015,08,29,15,33,999.80
2015,08,29,15,34,999.80
2015,08,29,15,35,999.80
2015,08,29,15,36,999.80
2015,08,29,15,37,999.80
2015,08,29,15,38,999.80
2015,08,29,15,39,999.80
2015,08,29,15,40,999.80
2015,08,29,15,41,999.80
2015,08,29,15,42,999.80
2015,08,29,15,43,999.80
2015,08,29,15,44,1000.40
2015,08,29,15,45,1000.40
2015,08,29,15,46,1000.40
2015,08,29,15,47,1000.40
2015,08,29,15,48,1000.40
2015,08,29,15,49,1000.40
2015,08,29,15,50,1000.40
2015,08,29,15,51,1000.40
2015,08,29,15,52,1000.40
2015,08,29,15,53,1000.40
2015,08,29,15,54,1000.40
2015,08,29,15,55,1000.40
2015,08,29,15,56,1000.40
2015,08,29,15,57,1000.40
2015,08,29,16,00,1000.40
2015,08,29,16,01,1000.40
2015,08,29,16,02,1000.40
2015,08,29,16,03,1000.40
2015,08,29,16,04,1000.40
2015,08,29,16,05,1000.40
2015,08,29,16,06,1000.40
2015,08,29,16,07,1000.40
2015,08,29,16,08,1000.40
2015,08,29,16,09,1000.40
2015,08,29,16,10,1000.40
2015,08,29,16,11,1000.40
2015,08,29,16,12,1000.40
2015,08,29,16,13,1000.40
2015,08,29,16,15,1000.70
2015,08,29,16,16,1000.70
2015,08,29,16,17,1000.70
2015,08,29,16,18,1000.70
2015,08,29,16,19,1000.70
2015,08,29,16,20,1000.70
2015,08,29,16,21,1000.70
2015,08,29,16,22,1000.70
2015,08,29,16,23,1000.70
2015,08,29,16,24,1000.70
2015,08,29,16,25,1000.70
2015,08,29,16,26,1000.70
2015,08,29,16,27,1000.70
2015,08,29,16,28,1000.70
2015,08,29,16,29,1000.70
2015,08,29,16,30,1000.70
2015,08,29,16,31,1000.70
2015,08,29,16,32,1000.70
2015,08,29,16,33,1000.70
2015,08,29,16,34,1000.70
2015,08,29,16,35,1000.70
2015,08,29,16,36,1000.70
2015,08,29,16,37,1000.70
2015,08,29,16,38,1000.70
2015,08,29,16,39,1000.70
2015,08,29,16,40,1000.70
2015,08,29,16,41,1000.70
2015,08,29,16,42,1000.70
2015,08,29,16,43,1000.70
2015,08,29,16,44,1001.00
2015,08,29,16,45,1001.00
2015,08,29,16,46,1001.00
2015,08,29,16,47,1001.00
2015,08,29,16,48,1001.00
2015,08,29,16,49,1001.00
2015,08,29,16,51,1001.00
2015,08,29,16,52,1001.00
2015,08,29,16,53,1001.00
2015,08,29,16,54,1001.00
2015,08,29,16,55,1001.00
2015,08,29,16,57,1001.00
2015,08,29,16,58,1001.00
2015,08,29,16,59,1001.20
2015,08,29,17,00,1001.20
2015,08,29,17,01,1001.20
2015,08,29,17,03,1001.20
2015,08,29,17,04,1001.20
2015,08,29,17,05,1001.20
2015,08,29,17,06,1001.20
2015,08,29,17,07,1001.20
2015,08,29,17,08,1001.20
2015,08,29,17,09,1001.20
2015,08,29,17,10,1001.20
2015,08,29,17,11,1001.20
2015,08,29,17,12,1001.20
2015,08,29,17,13,1001.20
2015,08,29,17,14,1001.20
2015,08,29,17,15,1001.20
2015,08,29,17,16,1001.20
2015,08,29,17,17,1001.20
2015,08,29,17,18,1001.20
2015,08,29,17,19,1001.20
2015,08,29,17,20,1001.20
2015,08,29,17,21,1001.20
2015,08,29,17,22,1001.20
2015,08,29,17,23,1001.20
2015,08,29,17,24,1001.20
2015,08,29,17,25,1001.20
2015,08,29,17,26,1001.20
2015,08,29,17,28,1001.20
2015,08,29,17,29,1000.90
2015,08,29,17,30,1000.90
2015,08,29,17,31,1000.90
2015,08,29,17,32,1000.90
2015,08,29,17,33,1000.90
2015,08,29,17,34,1000.90
2015,08,29,17,35,1000.90
2015,08,29,17,36,1000.90
2015,08,29,17,37,1000.90
2015,08,29,17,38,1000.90
2015,08,29,17,39,1000.90
2015,08,29,17,40,1000.90
2015,08,29,17,41,1000.90
2015,08,29,17,42,1000.90
2015,08,29,17,43,1000.90
2015,08,29,17,44,1000.90
2015,08,29,17,45,1000.90
2015,08,29,17,46,1000.90
2015,08,29,17,47,1000.90
2015,08,29,17,48,1000.90
2015,08,29,17,49,1000.90
2015,08,29,17,50,1000.90
2015,08,29,17,51,1000.90
2015,08,29,17,52,1000.90
2015,08,29,17,53,1000.90
2015,08,29,17,54,1000.90
2015,08,29,17,55,1000.90
2015,08,29,17,56,1000.90
2015,08,29,17,57,1000.90
2015,08,29,17,58,1000.90
2015,08,29,17,59,1000.90
2015,08,29,18,00,1000.90
2015,08,29,18,01,1000.90
2015,08,29,18,02,1000.90
2015,08,29,18,03,1000.90
2015,08,29,18,04,1000.90
2015,08,29,18,05,1000.90
2015,08,29,18,06,1000.90
2015,08,29,18,07,1000.90
2015,08,29,18,09,1000.90
2015,08,29,18,10,1000.90
2015,08,29,18,11,1000.90
2015,08,29,18,13,1000.90
2015,08,29,18,14,1001.30
2015,08,29,18,16,1001.30
2015,08,29,18,17,1001.30
2015,08,29,18,18,1001.30
2015,08,29,18,19,1001.30
2015,08,29,18,20,1001.30
2015,08,29,18,21,1001.30
2015,08,29,18,23,1001.30
2015,08,29,18,24,1001.30
2015,08,29,18,25,1001.30
2015,08,29,18,26,1001.30
2015,08,29,18,27,1001.30
2015,08,29,18,28,1001.30
2015,08,29,18,29,1001.60
2015,08,29,18,30,1001.60
2015,08,29,18,31,1001.60
2015,08,29,18,32,1001.60
2015,08,29,18,33,1001.60
2015,08,29,18,34,1001.60
2015,08,29,18,35,1001.60
2015,08,29,18,36,1001.60
2015,08,29,18,37,1001.60
2015,08,29,18,38,1001.60
2015,08,29,18,39,1001.60
2015,08,29,18,40,1001.60
2015,08,29,18,41,1001.60
2015,08,29,18,42,1001.60
2015,08,29,18,44,1002.00
2015,08,29,18,45,1002.00
2015,08,29,18,46,1002.00
2015,08,29,18,47,1002.00
2015,08,29,18,49,1002.00
2015,08,29,18,50,1002.00
2015,08,29,18,51,1002.00
2015,08,29,18,52,1002.00
2015,08,29,18,53,1002.00
2015,08,29,18,54,1002.00
2015,08,29,18,55,1002.00
2015,08,29,18,56,1002.00
2015,08,29,18,57,1002.00
2015,08,29,18,58,1002.00
2015,08,29,19,00,1002.20
2015,08,29,19,01,1002.20
2015,08,29,19,02,1002.20
2015,08,29,19,03,1002.20
2015,08,29,19,04,1002.20
2015,08,29,19,05,1002.20
2015,08,29,19,06,1002.20
2015,08,29,19,07,1002.20
2015,08,29,19,08,1002.20
2015,08,29,19,09,1002.20
2015,08,29,19,10,1002.20
2015,08,29,19,11,1002.20
2015,08,29,19,12,1002.20
2015,08,29,19,13,1002.20
2015,08,29,19,14,1002.20
2015,08,29,19,15,1002.20
2015,08,29,19,16,1002.20
2015,08,29,19,17,1002.20
2015,08,29,19,18,1002.20
2015,08,29,19,20,1002.20
2015,08,29,19,21,1002.20
2015,08,29,19,22,1002.20
2015,08,29,19,23,1002.20
2015,08,29,19,24,1002.20
2015,08,29,19,25,1002.20
2015,08,29,19,26,1002.20
2015,08,29,19,27,1002.20
2015,08,29,19,28,1002.20
2015,08,29,19,29,1002.40
2015,08,29,19,30,1002.40
2015,08,29,19,31,1002.40
2015,08,29,19,32,1002.40
2015,08,29,19,33,1002.40
2015,08,29,19,34,1002.40
2015,08,29,19,35,1002.40
2015,08,29,19,36,1002.40
2015,08,29,19,37,1002.40
2015,08,29,19,38,1002.40
2015,08,29,19,39,1002.40
2015,08,29,19,40,1002.40
2015,08,29,19,41,1002.40